Lapse_Rate
5.8 5.7 5.5 5.6 5.3 4.3 4.3 4.3 4.5 5.7 6.0 4.9 5.8 6.8 5.5 4.3 3.6 4.1 4.8 6.1 5.7 6.5 7.3 8.1 8.8 8.6 8.2 8.6 8.5 8.3 8.3 8.4 8.3 6.4 5.7 6.1 6.1 6.1 5.8 5.2 5.1 4.8 4.3
5.8 5.4 5.6 4.1 3.7 4.2 4.1 3.6 3.8 4.8 5.7 7.0 6.2 7.4 6.9 5.7 4.6 3.9 4.3 4.2 4.5 5.1 5.9 7.6 7.9 8.4 8.5 8.4 8.5 8.0 7.4 8.0 7.3 7.4 6.5 6.2 6.5 7.4 7.4 7.0 7.0 7.1 6.8
5.7 4.6 3.7 3.2 3.3 3.2 3.7 4.4 5.7 6.7 6.2 6.9 5.4 5.9 7.1 6.4 5.3 2.9 4.3 3.9 3.5 4.1 4.5 5.1 7.4 7.5 8.5 8.5 8.5 8.1 8.6 8.6 8.3 8.3 8.2 7.9 8.1 8.3 8.6 8.2 8.1 8.3 8.5
6.0 4.0 3.1 3.2 3.7 3.6 4.4 5.1 6.6 7.3 5.9 5.6 5.0 4.9 4.9 5.7 6.7 4.7 4.9 4.6 4.1 3.1 2.9 3.7 5.0 6.9 7.7 8.3 8.5 8.7 8.4 8.4 8.5 8.4 8.2 8.0 8.2 8.2 8.4 8.4 8.2 8.2 8.6
3.9 1.9 2.5 2.7 3.7 4.7 5.7 6.5 7.1 6.8 6.8 6.1 6.2 5.6 5.3 5.7 6.2 5.9 6.9 7.8 5.1 3.8 3.2 4.2 4.6 4.8 6.6 8.0 8.3 8.9 8.3 8.6 7.9 7.8 7.8 7.9 8.0 8.5 8.6 8.4 8.2 8.4 8.5
1.8 3.0 3.5 3.5 4.5 5.7 6.7 7.3 6.8 7.0 6.3 6.4 7.1 5.7 5.6 6.2 7.0 4.7 5.5 7.7 8.0 5.8 4.2 4.3 4.1 4.1 4.9 6.7 7.9 8.4 8.0 8.9 7.9 7.9 7.8 7.9 7.8 8.1 8.3 8.4 7.8 8.1 8.5
2.4 3.7 5.0 4.4 6.2 5.7 7.0 6.6 7.1 6.9 6.8 6.5 6.1 6.5 6.3 6.8 6.1 4.6 6.4 7.2 8.5 8.9 8.3 6.4 4.1 3.5 3.5 3.5 4.9 8.0 8.2 8.1 8.2 7.1 6.4 8.5 8.0 7.9 7.9 7.9 7.9 8.0 8.0
3.3 4.6 5.1 5.3 5.4 6.6 6.6 6.9 7.1 7.1 6.6 5.6 5.0 4.7 6.2 6.6 7.4 7.5 7.2 7.8 8.0 8.0 6.5 7.1 6.4 5.0 3.1 3.4 3.4 3.7 5.5 8.8 9.3 8.4 7.7 8.3 8.4 8.0 7.8 7.9 8.2 7.6 7.9
3.5 5.1 5.9 5.3 4.8 6.7 7.0 6.7 6.5 6.4 5.9 5.6 4.4 4.2 6.1 6.2 6.9 7.2 7.3 6.9 6.5 5.8 5.7 5.9 5.2 6.6 4.0 1.3 1.2 1.6 2.8 4.3 6.5 9.2 9.3 9.2 9.3 8.5 8.3 9.3 8.3 7.3 7.2
3.7 4.7 5.4 5.6 5.8 7.1 6.8 6.7 6.7 6.1 4.7 4.7 4.5 5.8 4.6 3.5 5.8 6.9 6.8 6.7 7.0 7.1 5.3 6.3 5.9 7.0 3.8 1.9 1.3 1.3 1.9 2.9 4.4 7.9 9.2 9.1 9.0 8.3 8.2 8.3 8.3 9.1 9.1
4.9 4.9 5.6 6.1 5.5 6.8 6.4 6.5 6.5 6.3 4.7 4.8 4.3 5.5 4.6 4.3 3.4 5.7 6.7 6.6 7.1 7.2 7.5 7.5 6.5 7.4 5.5 1.5 1.1 1.5 1.9 2.8 3.6 4.8 6.5 8.9 8.9 8.9 6.9 7.2 9.2 9.1 8.3
5.5 5.9 6.0 6.0 5.5 6.5 6.2 6.3 5.9 6.2 5.2 5.4 4.8 5.7 5.1 5.5 5.7 4.1 5.3 6.6 7.1 6.9 7.0 7.8 7.7 7.6 4.4 2.5 1.8 1.6 1.7 2.2 2.8 3.5 3.6 4.1 5.5 7.2 4.5 4.6 8.6 9.0 8.9
6.2 5.8 6.3 6.2 5.4 5.7 5.9 5.9 5.7 6.2 6.1 6.1 6.1 6.0 5.4 5.8 6.2 5.0 4.2 6.8 6.7 6.4 6.5 6.7 8.1 7.5 5.7 3.1 2.4 2.0 1.6 1.7 2.4 2.8 3.1 3.2 3.7 4.3 4.3 4.3 6.1 8.5 8.2
4.3 5.3 6.2 6.6 6.0 5.3 5.8 6.2 6.4 6.3 6.6 6.2 6.2 6.1 5.7 5.4 5.7 5.4 5.1 6.2 6.3 6.5 6.4 6.5 7.3 7.6 6.4 4.6 3.6 2.4 1.9 1.9 1.9 2.7 3.0 2.9 3.1 3.2 2.9 3.0 3.1 4.5 5.3
6.1 4.8 5.9 6.4 6.5 5.8 6.5 6.3 6.7 6.4 5.6 5.4 5.9 5.3 5.6 5.1 5.3 5.0 5.7 5.5 3.9 6.5 6.6 6.2 5.9 7.1 5.9 5.3 4.5 0.9 2.0 2.3 1.9 2.2 2.6 2.5 2.4 2.3 2.3 2.6 2.8 3.2 3.8
5.4 5.5 5.4 7.0 7.0 6.6 6.7 6.3 6.1 5.2 5.3 4.7 4.8 5.3 5.7 4.8 5.2 5.0 5.0 5.2 4.4 3.5 5.6 6.7 5.9 5.6 6.6 7.3 7.0 3.0 3.3 3.1 2.7 2.7 2.5 2.2 2.0 1.8 1.7 1.8 2.5 2.9 3.9
4.4 4.9 5.6 6.3 6.8 6.8 6.0 5.6 5.7 5.7 5.0 4.5 4.4 4.8 5.3 5.4 5.0 5.0 5.3 5.4 5.0 5.2 4.8 5.9 5.4 5.7 6.3 5.9 6.0 5.0 4.0 2.1 2.9 2.7 2.2 1.8 1.8 1.6 1.4 1.6 2.2 3.1 4.4
3.9 4.6 5.2 5.7 5.8 5.6 6.1 5.1 5.1 5.0 4.8 4.2 4.1 4.9 4.7 6.1 5.5 4.7 4.4 4.7 4.6 4.9 3.6 3.7 4.8 5.1 5.3 6.3 6.8 5.7 6.3 5.5 4.1 3.6 2.9 2.4 2.0 1.9 2.0 1.8 2.5 3.5 4.4
3.3 3.8 4.5 5.2 5.8 4.6 4.7 5.0 4.1 3.7 3.1 2.5 3.3 3.4 2.0 5.0 5.0 4.7 4.4 3.9 4.2 4.8 2.9 1.8 3.6 4.5 5.7 6.5 6.5 7.6 7.4 5.2 4.4 3.7 3.1 3.0 3.5 2.6 2.1 2.1 2.3 3.2 4.1
2.2 1.2 2.4 3.0 3.2 3.3 4.0 4.4 2.3 0.9 0.4 -0.0 0.7 -0.4 1.3 1.5 1.7 2.0 2.0 2.0 4.2 3.6 3.0 2.3 3.5 5.0 3.3 3.8 4.8 4.7 5.1 4.4 4.2 5.5 4.9 3.6 3.8 3.7 3.4 1.4 2.8 3.2 3.5
2.8 2.4 2.9 3.5 4.0 4.7 4.4 3.3 1.3 0.5 0.3 0.8 0.8 2.8 2.3 3.3 3.8 3.8 3.7 3.5 3.2 2.8 2.8 2.8 3.5 2.6 1.5 2.5 2.3 3.0 3.4 2.9 2.9 5.3 5.5 5.8 4.7 4.0 3.4 3.6 4.0 3.4 3.5
3.6 3.8 4.1 4.3 5.2 5.9 3.8 2.1 2.0 0.8 1.6 3.3 3.5 2.6 1.6 1.9 2.0 1.8 2.1 3.0 3.3 2.3 2.5 2.4 2.1 2.3 0.5 0.3 0.3 1.6 1.9 1.7 2.4 5.3 2.0 2.8 6.3 5.8 5.8 5.0 4.6 4.5 4.4
3.7 3.8 4.1 4.6 5.3 5.2 3.9 3.2 1.7 1.9 3.4 4.8 3.1 1.9 3.1 2.8 1.7 1.9 3.0 3.5 3.2 4.2 3.3 2.6 2.2 1.7 0.6 0.9 1.8 2.8 3.2 3.8 4.5 3.1 3.0 3.3 6.4 4.1 6.3 5.3 5.3 5.7 5.5
3.4 3.6 4.1 3.7 3.1 3.5 2.7 2.4 3.6 2.7 4.6 3.9 2.4 2.5 1.3 1.4 2.1 3.0 3.1 0.3 0.7 1.7 4.3 5.0 2.3 1.2 1.8 3.0 3.6 4.5 4.4 6.2 4.6 4.6 5.4 4.5 5.6 6.2 7.4 5.2 6.1 6.3 6.2
3.5 3.6 4.0 4.0 3.6 3.3 3.6 3.0 3.7 4.8 4.8 4.0 4.2 2.4 2.6 1.9 3.6 4.4 1.0 0.7 0.4 0.5 2.0 0.6 0.2 0.3 0.9 1.5 2.6 3.5 5.1 5.7 5.1 3.7 3.4 3.3 5.0 5.3 5.3 5.5 6.3 6.9 6.8
4.4 4.4 5.1 3.5 3.2 2.6 3.8 4.4 6.4 5.0 5.4 5.6 4.7 4.8 3.9 3.8 4.3 3.7 1.8 0.7 0.2 0.2 -0.5 -0.0 0.0 0.3 0.5 1.0 1.3 1.7 1.4 4.5 4.3 3.5 1.5 2.4 3.8 3.7 3.7 7.2 7.9 7.1 7.3
Wind_Speed
8 11 11 14 12 14 12 6 7 5 4 16 17 18 19 21 19 18 15 23 19 19 16 15 17 18 18 20 21 21 22 21 21 21 21 20 20 19 19 19 18 17 17
10 7 4 6 8 13 13 11 7 6 2 2 9 17 19 21 17 21 17 17 18 18 19 19 18 17 17 19 19 19 19 20 20 20 20 20 19 20 21 20 19 19 18
13 10 7 5 7 12 14 11 8 9 4 7 9 13 16 20 19 22 17 14 15 19 20 21 20 18 17 17 17 18 18 19 18 19 18 19 19 19 20 20 20 20 20
16 12 7 6 12 12 10 5 5 7 6 5 5 5 7 12 13 19 19 16 12 13 18 19 20 19 17 17 17 17 18 18 18 18 18 18 18 19 20 20 21 21 21
13 12 7 8 15 10 8 9 7 9 9 6 6 5 5 4 8 13 14 14 18 15 14 17 19 20 20 19 18 18 18 18 19 19 18 18 18 19 20 20 20 19 21
17 12 9 10 14 9 8 9 8 9 10 10 10 7 4 5 7 10 10 8 14 18 17 14 15 18 20 21 20 18 18 19 18 18 18 19 19 19 19 20 20 21 20
17 14 10 10 11 9 10 10 10 11 10 10 8 7 4 5 5 5 12 9 7 10 15 18 16 16 15 19 19 17 17 19 19 18 18 18 19 20 20 21 21 22 21
20 14 11 11 12 10 11 12 12 9 9 11 9 7 4 3 2 4 6 5 6 11 13 16 17 16 17 16 15 15 15 15 16 16 16 17 17 17 19 19 21 21 23
20 17 10 13 13 11 11 14 14 14 12 9 15 4 4 4 6 2 4 5 6 6 12 12 14 9 18 16 16 15 16 15 15 15 15 14 15 16 18 18 18 20 22
17 17 12 15 15 10 13 12 12 13 13 12 11 5 4 9 4 5 4 5 5 8 8 12 10 13 21 19 16 15 15 15 14 14 14 15 16 17 17 17 18 19 20
16 17 14 15 15 11 13 15 15 12 13 11 9 3 5 7 7 5 8 6 4 4 7 12 14 8 19 20 18 14 14 15 15 14 14 14 15 16 18 18 19 19 20
12 15 15 14 14 12 15 13 14 15 13 12 8 7 5 6 8 5 7 11 8 4 4 9 12 14 20 19 17 14 14 14 15 14 15 15 15 16 18 18 17 18 19
10 14 14 14 14 12 12 14 15 13 13 12 11 7 4 4 6 5 11 11 8 4 3 3 9 16 19 20 17 14 15 14 14 14 15 15 15 15 16 17 17 18 17
13 15 13 12 14 14 14 14 12 11 10 8 11 8 4 5 4 10 10 13 10 6 4 5 6 15 19 20 19 16 15 14 14 14 14 15 14 15 16 17 17 16 18
9 14 16 15 15 15 15 15 11 12 8 5 8 6 5 4 3 5 11 12 12 8 6 5 4 16 18 20 21 19 17 14 13 13 13 14 15 15 16 16 16 17 17
11 13 15 14 17 16 15 14 11 8 9 5 5 6 3 4 4 3 8 10 7 5 4 9 4 8 16 14 15 21 19 14 12 12 13 13 14 15 15 16 17 16 15
9 13 13 13 11 9 13 11 10 11 12 8 7 8 6 6 3 3 7 7 5 9 11 5 6 9 9 10 18 21 20 18 15 12 12 12 13 14 16 16 17 15 13
8 11 10 10 9 7 4 11 13 10 12 9 8 8 7 6 6 4 4 6 4 11 13 15 6 4 6 12 13 17 19 19 16 12 11 11 13 13 14 15 15 14 13
10 9 9 10 9 10 8 4 11 10 9 8 7 6 8 8 6 4 5 6 8 9 10 11 8 3 3 6 5 7 11 20 16 15 12 10 9 12 13 14 14 13 13
15 12 9 9 7 5 10 9 11 14 11 10 9 10 7 7 6 6 6 6 10 11 10 10 7 5 3 2 2 4 3 5 5 13 12 13 10 10 10 13 13 13 12
14 15 15 13 11 10 8 11 12 14 13 12 10 9 8 12 12 7 6 7 11 10 9 8 6 3 2 1 3 0 3 2 2 4 1 12 11 10 8 10 10 9 9
16 17 16 17 13 8 16 18 14 14 12 11 10 10 11 17 15 19 17 14 11 12 11 8 5 6 3 3 2 3 3 3 2 4 2 0 6 8 10 10 8 5 5
15 15 15 16 13 14 20 20 21 12 10 10 11 10 10 8 12 12 16 19 15 12 10 10 10 9 7 5 5 4 4 3 2 2 2 2 7 2 12 10 8 5 3
14 14 13 14 13 12 20 21 19 13 11 11 11 9 12 10 9 11 12 13 12 11 8 10 7 7 7 11 9 6 6 4 6 5 3 1 2 2 10 16 12 9 6
10 11 12 12 13 13 22 22 17 13 12 12 10 12 12 11 14 18 14 14 13 12 27 28 25 22 18 17 12 4 3 3 3 1 7 2 0 1 1 9 15 13 10
11 10 11 11 16 13 20 18 12 9 12 9 11 10 15 11 15 17 13 13 12 8 11 10 11 16 15 16 16 13 4 0 3 3 2 2 2 2 3 2 7 15 15
Wind_Direction
161 154 170 156 160 131 143 149 116 100 129 132 109 92 114 105 98 86 72 66 72 75 72 76 80 84 80 77 74 71 67 60 55 53 47 45 45 43 43 42 36 31 27
158 158 123 132 126 139 128 125 122 107 103 90 102 117 123 113 110 96 79 70 74 73 69 67 71 84 87 83 76 70 64 60 56 52 49 46 43 45 43 41 39 36 34
159 148 141 135 139 135 128 138 160 134 118 82 74 82 92 117 127 124 115 100 77 73 71 64 62 67 80 84 82 74 69 61 59 53 50 47 46 44 42 39 36 35 34
154 150 155 159 161 149 163 163 155 136 115 104 93 82 87 100 113 124 131 130 109 79 74 71 66 62 65 74 75 73 68 62 57 56 51 47 49 46 43 40 37 34 35
141 135 149 160 152 163 176 155 146 142 132 122 114 102 99 109 116 88 79 113 122 113 95 84 75 68 61 63 69 69 68 65 61 59 57 51 45 48 43 41 35 36 36
148 146 161 170 176 176 180 158 154 146 144 144 128 110 91 91 83 101 108 100 138 147 139 116 86 69 63 58 61 68 68 67 62 60 55 52 47 46 46 44 39 37 38
167 170 182 172 181 169 172 152 151 149 148 134 127 105 95 95 107 116 131 150 157 115 152 131 118 94 65 56 56 62 66 66 63 59 55 53 49 44 48 45 42 37 37
179 181 173 174 178 174 167 163 158 154 153 151 149 127 144 86 104 157 127 129 139 101 72 77 91 110 109 85 71 63 64 66 67 64 57 56 52 46 49 45 40 39 38
176 182 173 176 184 185 172 170 168 165 159 172 173 152 147 153 141 115 143 148 151 121 111 113 117 137 103 90 77 67 62 63 68 66 64 59 53 49 43 44 44 42 40
181 183 184 178 186 181 171 176 170 169 167 171 189 249 73 130 154 163 185 156 162 143 147 154 144 119 106 99 91 81 68 63 71 69 66 62 58 54 47 48 45 43 39
193 187 186 184 184 179 176 175 174 172 175 175 183 173 129 140 139 149 153 165 149 136 142 142 140 147 127 108 95 87 78 72 71 69 65 61 58 55 49 48 47 43 39
188 197 188 185 185 182 177 175 176 173 176 185 186 177 158 167 155 155 147 160 155 152 138 128 141 130 99 96 103 100 89 83 79 73 71 65 59 56 50 46 47 43 42
190 195 190 189 183 181 173 173 176 182 183 184 176 169 163 190 175 133 147 155 145 134 129 152 135 122 123 116 118 111 96 87 83 79 74 67 61 56 55 50 43 44 41
182 187 189 195 183 182 176 180 176 182 183 173 173 167 162 185 148 151 155 149 132 144 141 154 124 113 121 129 130 119 102 90 82 80 75 72 65 61 57 53 48 43 40
187 177 192 188 189 183 176 175 173 174 171 163 164 150 147 135 114 126 153 154 149 151 163 169 141 130 118 135 145 129 115 107 97 87 82 78 71 60 55 53 50 43 40
177 179 189 204 186 179 171 169 165 156 144 142 131 133 118 123 106 122 148 145 151 141 141 160 140 130 148 145 154 123 122 118 109 99 84 78 69 64 58 53 49 43 37
171 171 179 190 178 189 157 149 151 149 140 134 134 136 132 120 129 161 150 151 160 156 133 121 134 137 128 143 133 135 140 133 123 114 104 91 76 64 58 55 51 44 42
167 165 164 160 142 141 177 142 148 148 139 126 131 135 129 115 157 172 128 116 111 132 135 134 134 123 127 145 156 162 165 139 123 117 109 97 92 78 64 58 52 43 40
150 151 142 145 158 140 124 139 128 113 99 101 109 142 120 151 150 150 123 116 114 117 126 132 138 119 131 135 130 118 106 134 131 139 132 121 103 93 80 69 58 44 34
143 122 108 103 97 81 119 119 108 105 98 92 89 71 77 95 103 95 103 117 122 122 126 128 128 120 84 5 134 142 94 74 141 158 154 154 143 107 99 83 67 53 39
135 121 122 117 114 112 107 120 117 107 107 104 87 104 88 89 84 97 111 119 120 123 129 126 127 105 104 113 112 179 108 112 40 58 114 154 143 139 128 101 77 63 48
135 136 135 130 130 118 118 116 130 109 107 108 115 108 95 87 85 83 79 82 110 128 133 135 137 144 150 129 118 151 134 126 146 179 122 100 127 147 144 127 122 105 72
139 137 133 133 139 136 137 129 112 112 130 133 133 124 113 113 107 104 94 86 80 115 141 145 150 151 143 149 152 154 146 180 111 185 141 168 186 168 161 162 165 169 138
134 134 140 140 135 144 135 123 129 135 143 140 141 138 128 134 137 133 110 87 71 51 86 108 115 128 121 150 163 159 174 134 107 107 50 80 170 129 181 176 190 199 195
130 134 136 132 134 139 142 152 150 153 147 142 138 132 144 140 157 138 117 109 96 85 85 93 99 97 90 75 60 69 130 150 155 123 18 74 8 69 167 168 200 208 213
129 134 127 127 134 143 161 171 161 143 137 132 132 142 136 142 150 129 124 119 112 120 110 101 91 84 83 78 66 53 50 112 124 119 355 66 25 74 348 39 182 209 214